Theta_e
303 305 305 305 306 306 306 306 306 306 305 305 306 306 304 301 300 295 294 298 292 284 284 286 287 288 288 289 285 286 286 287 283 279 280 276 278 277 278 279 279 278 277 277 274 275 274 282 286 283 277 279 278 277
303 303 303 303 304 305 305 305 305 305 305 306 306 303 301 301 300 299 291 295 295 287 285 290 289 289 289 287 289 285 286 284 285 281 279 278 276 277 276 277 282 279 283 281 281 281 281 279 276 274 274 273 274 273
302 301 302 302 302 303 303 303 303 303 304 305 303 302 301 302 302 297 292 294 293 286 286 284 283 288 291 291 292 287 286 288 286 287 283 281 280 280 278 279 280 279 278 282 283 279 278 275 273 271 271 271 272 273
300 301 301 302 301 302 302 302 301 301 302 302 302 301 300 299 297 294 287 288 291 287 280 281 290 286 291 295 293 292 291 291 290 289 285 282 282 283 280 281 281 273 274 274 279 270 274 272 270 269 269 270 270 270
299 299 299 300 301 301 301 300 301 301 301 300 299 299 298 297 296 293 290 288 288 288 280 281 286 286 290 292 291 292 291 289 287 284 284 281 284 284 282 283 272 265 265 274 277 263 263 268 269 267 266 266 267 267
298 298 298 298 299 299 299 300 300 299 300 299 299 299 298 296 295 292 286 290 288 289 282 277 283 282 284 289 288 287 288 287 287 284 279 276 276 280 280 278 263 263 263 262 262 262 262 263 265 266 263 264 265 265
297 297 297 298 297 297 297 297 298 298 298 298 296 295 295 293 287 282 282 284 288 288 282 278 278 282 282 285 286 286 287 281 284 278 275 276 274 276 277 275 261 261 261 261 262 261 263 262 261 262 263 263 263 263
295 295 296 296 296 296 296 296 297 296 296 295 295 295 294 293 290 282 284 283 286 282 282 275 275 280 281 280 282 284 284 281 273 271 271 270 271 270 266 261 260 259 260 261 260 260 259 260 261 260 261 261 260 261
293 293 293 293 294 295 294 294 294 295 294 293 293 291 286 279 279 280 287 282 276 279 270 271 273 274 279 278 280 282 279 273 270 268 266 268 264 267 259 258 258 257 256 257 258 258 258 257 258 258 259 259 258 259
292 293 292 292 292 292 293 293 292 292 292 291 286 282 278 277 284 284 275 275 268 265 266 263 266 270 275 274 276 277 274 271 270 264 265 263 258 259 258 257 257 257 257 256 253 255 255 255 256 257 258 259 259 259
291 291 291 291 291 291 291 291 290 288 287 278 276 275 277 280 279 271 265 265 263 262 260 261 264 267 272 273 274 275 271 270 270 265 267 260 263 260 256 255 256 256 256 255 255 256 256 256 257 257 258 259 259 260
291 290 290 291 290 289 289 289 289 279 274 275 275 272 272 268 270 268 258 260 259 258 258 260 262 263 266 271 273 270 270 269 268 261 266 265 262 257 255 254 254 254 254 253 253 254 255 257 258 258 259 259 259 260
290 290 289 289 289 288 287 286 286 283 277 273 268 264 268 261 263 262 260 260 260 257 257 256 262 260 265 269 266 268 268 264 261 264 265 264 258 256 253 252 252 251 251 252 253 254 256 257 258 259 258 259 259 260
288 288 289 288 287 287 285 283 281 277 268 262 263 259 258 256 253 254 256 255 257 258 256 257 257 261 260 265 263 267 259 261 262 264 265 261 256 253 250 250 250 252 251 252 254 254 255 257 258 259 259 259 259 258
287 287 287 287 286 285 283 280 276 263 261 257 260 254 253 252 252 251 250 252 256 255 256 257 258 263 261 263 260 261 261 263 263 266 263 258 254 251 251 251 250 250 251 253 254 255 255 256 258 258 259 259 259 258
285 282 280 287 286 282 281 270 264 261 255 257 254 255 249 254 254 252 251 253 254 256 256 256 259 263 259 259 263 264 265 265 266 260 256 253 251 250 251 250 251 251 252 253 254 255 256 255 257 258 259 258 258 258
281 271 283 285 283 278 277 264 262 254 255 256 253 245 250 251 254 252 250 254 256 255 258 256 261 259 257 260 260 255 263 261 256 254 252 252 253 253 250 249 249 249 252 253 253 254 255 257 257 257 256 257 257 258
270 274 283 282 270 269 259 260 259 258 253 251 256 252 249 249 252 251 251 253 254 255 256 257 259 257 259 260 262 259 255 252 251 253 254 253 252 251 252 253 251 251 252 250 250 251 251 252 254 256 255 256 256 257
274 279 281 280 272 262 261 259 259 255 249 247 249 250 249 249 248 249 249 250 252 253 256 256 258 260 261 257 257 253 252 253 255 255 255 253 254 252 251 250 250 251 250 250 251 252 252 251 253 255 254 254 254 255
280 281 280 276 272 263 260 256 256 258 253 252 248 250 250 251 248 246 247 249 252 253 255 256 258 258 257 256 254 255 255 255 255 256 257 256 254 251 252 252 253 251 249 249 249 249 252 253 254 254 253 253 253 254
273 273 274 264 259 255 252 250 253 250 249 252 245 249 252 248 249 250 250 247 254 255 258 255 254 253 248 248 249 251 253 254 255 257 257 255 252 252 252 250 248 247 249 251 251 252 249 252 253 252 251 252 252 252
263 274 263 266 260 256 253 250 253 249 252 247 249 247 249 251 249 248 245 250 254 257 254 253 251 249 247 248 248 247 247 247 245 249 248 249 253 251 251 250 247 251 249 250 250 251 253 252 251 250 250 252 250 251
268 266 260 260 261 258 252 249 252 249 255 253 247 253 251 247 245 246 251 251 253 248 245 246 243 239 246 240 239 241 241 246 249 248 249 249 249 248 247 247 247 248 250 253 250 251 251 250 250 250 250 250 250 251
263 254 254 253 255 254 248 250 248 249 248 249 250 253 251 245 245 250 255 252 252 242 243 243 243 246 244 242 247 250 249 244 247 246 244 247 248 250 248 250 249 248 250 251 249 249 250 250 249 249 250 249 250 249
264 255 254 253 247 254 251 250 250 252 250 242 249 251 249 240 251 250 254 256 248 247 247 241 243 247 252 250 249 248 241 247 248 250 250 247 249 248 250 249 249 250 249 248 249 249 250 248 248 249 249 248 249 250
257 247 252 247 250 255 248 254 250 249 244 249 247 243 240 247 252 255 255 256 253 252 247 249 251 247 247 248 251 249 251 244 247 250 251 248 249 252 253 253 253 256 250 252 252 252 252 252 251 251 251 252 252 251
259 253 242 238 242 243 244 240 240 245 249 252 249 248 249 252 252 257 254 251 253 249 248 250 255 255 256 251 251 249 244 247 249 250 248 248 250 252 254 254 255 257 253 252 252 253 255 256 255 255 254 254 253 252
247 243 256 245 243 238 247 242 245 249 250 245 248 253 254 255 259 257 255 250 245 243 244 243 244 247 249 250 248 247 244 242 244 247 250 251 251 251 251 253 255 258 254 254 254 254 254 254 254 254 254 254 254 253
246 239 243 246 242 242 246 251 251 247 243 246 252 254 255 253 251 248 249 246 240 243 247 248 248 241 243 242 242 243 245 248 251 252 252 255 256 260 253 254 254 255 255 256 257 257 254 254 254 254 254 255 255 254
244 236 246 243 249 253 248 242 242 235 235 237 236 242 245 246 246 243 242 242 245 249 250 247 245 248 250 250 250 247 245 248 254 258 258 260 260 259 256 255 255 255 255 255 255 255 258 260 259 257 255 254 254 252
238 238 244 244 248 243 237 232 231 232 233 233 231 236 242 241 242 244 243 244 243 241 243 245 246 245 248 249 251 251 255 252 252 254 257 259 260 260 259 259 259 259 257 256 256 256 256 255 255 255 255 254 253 252
239 242 247 252 250 237 233 236 236 237 235 236 237 232 237 239 245 251 247 243 242 243 247 245 245 249 250 254 251 253 256 254 254 255 255 256 257 259 260 260 260 259 258 257 257 256 256 255 255 255 254 254 254 252
238 237 237 241 246 247 241 241 243 243 239 239 241 240 240 244 250 253 248 247 251 250 250 249 249 248 249 250 252 254 255 257 257 261 262 261 260 260 259 260 260 259 258 257 257 256 255 255 255 255 254 254 253 250
Wind_Speed
42 37 34 32 31 31 31 33 33 34 34 32 26 23 20 17 12 8 4 7 8 8 12 7 7 5 6 8 12 8 5 3 3 6 4 3 4 5 4 4 7 8 8 4 3 4 10 6 1 8 6 6 11 10
39 38 37 35 32 32 31 30 28 27 25 23 22 23 20 15 12 14 9 6 5 11 8 8 14 14 7 1 15 2 4 3 4 6 2 5 3 2 3 5 1 5 3 5 10 3 5 9 11 10 9 6 9 14
38 38 38 37 35 36 34 30 26 26 25 22 23 22 15 14 13 21 14 11 12 11 10 8 7 11 19 8 3 7 1 5 4 3 5 3 4 3 5 4 3 2 5 2 1 6 5 7 9 12 13 11 12 13
39 38 36 34 33 32 32 32 31 30 27 26 22 27 27 26 22 14 6 3 5 8 8 5 7 8 12 11 11 5 11 9 7 4 4 3 4 4 3 4 2 3 5 2 3 5 6 5 6 15 17 14 14 16
35 35 34 33 32 30 28 27 27 29 29 28 27 29 30 30 31 19 10 8 6 7 7 4 3 14 16 16 19 15 12 8 3 4 4 3 2 3 2 3 3 4 3 2 1 4 5 7 11 20 14 15 16 19
36 34 31 29 27 27 28 29 29 28 24 22 20 21 17 8 13 7 8 6 9 5 9 6 1 9 11 13 18 17 9 8 5 5 4 3 2 2 4 3 4 4 3 3 3 9 12 16 15 8 18 18 18 18
34 33 33 31 28 27 25 24 24 25 26 28 30 27 23 24 10 8 4 3 11 2 8 6 4 6 6 4 5 7 8 5 5 4 4 2 2 4 2 4 4 3 5 7 4 9 4 5 10 18 17 18 17 16
33 33 33 32 31 27 23 22 20 18 17 18 20 22 24 28 18 8 10 12 2 8 7 7 3 2 9 4 4 4 3 3 8 3 2 3 2 2 4 5 2 4 7 3 1 5 10 12 14 13 13 13 14 13
33 33 33 32 32 31 26 20 18 15 13 9 9 8 9 11 6 2 12 9 9 9 8 6 3 4 6 3 1 3 3 4 2 4 3 3 2 2 4 1 2 3 3 7 10 10 6 8 11 12 12 12 11 12
33 33 33 33 32 31 30 26 16 14 11 9 10 8 6 3 13 4 9 8 12 9 8 6 3 3 4 3 2 1 3 3 2 2 1 4 2 3 2 1 3 3 3 4 4 5 6 8 10 12 11 10 10 10
30 31 32 33 33 32 31 31 24 11 16 7 6 3 3 12 3 6 7 9 6 7 7 3 5 3 6 3 2 3 2 1 3 1 2 1 1 4 4 2 2 3 3 4 6 8 8 10 10 10 11 11 11 12
28 29 30 30 31 32 30 28 22 10 3 4 5 3 3 10 7 11 4 4 9 3 5 3 4 4 4 3 1 3 3 1 2 1 0 1 3 4 3 2 2 3 4 5 3 6 6 7 6 7 8 10 10 10
25 26 29 30 29 28 29 24 18 11 4 4 8 10 8 8 15 8 6 4 3 4 5 5 2 3 3 2 4 2 4 3 2 3 1 0 4 3 3 2 2 2 4 4 5 5 6 6 5 5 8 7 8 7
18 23 24 29 28 25 25 25 20 7 10 10 8 12 7 5 4 1 2 2 1 2 4 2 2 3 2 4 1 5 2 1 3 1 3 3 5 5 3 1 0 3 5 4 5 6 6 6 6 5 5 5 5 7
16 19 23 29 26 22 19 20 20 9 8 9 8 7 6 0 1 1 1 1 0 2 2 1 0 1 3 4 4 4 2 1 3 3 2 4 5 4 3 2 1 3 4 4 4 5 5 5 5 5 6 6 6 7
12 11 14 29 23 24 15 11 10 6 8 7 10 5 1 1 2 2 2 1 1 3 1 1 2 4 4 2 2 3 5 4 2 1 3 5 5 4 3 2 2 2 3 4 5 5 5 5 4 4 3 5 6 6
14 4 23 21 15 13 21 8 7 12 8 7 4 2 2 3 1 0 0 2 3 1 1 0 4 2 1 2 1 3 3 1 0 2 2 2 4 4 4 2 0 1 2 3 4 5 5 5 4 2 4 6 5 5
4 6 19 17 6 7 6 9 8 8 9 3 4 1 1 1 1 1 2 2 2 1 0 2 3 2 3 3 2 2 2 1 1 2 3 3 3 3 2 0 1 2 3 3 3 4 4 4 3 2 4 5 5 4
3 13 19 17 9 8 7 9 7 7 2 0 1 1 1 1 1 1 1 3 1 1 1 1 3 2 3 3 2 2 2 3 3 3 2 2 3 4 3 2 2 2 4 3 3 3 4 4 5 3 3 3 3 3
5 19 20 21 11 7 8 6 4 7 3 1 2 2 0 0 1 1 1 2 1 1 2 1 3 2 2 1 2 1 2 4 3 3 2 3 3 4 4 3 2 2 3 4 3 4 3 3 2 2 2 2 3 4
9 10 16 9 7 11 8 3 6 3 3 3 0 0 0 1 2 3 2 2 1 1 1 3 2 0 1 1 1 0 2 3 3 1 1 3 2 2 3 3 2 2 2 2 3 3 3 4 3 2 3 3 3 4
3 10 4 7 8 6 8 3 4 1 3 1 2 1 3 2 3 3 3 2 2 3 3 3 2 3 2 2 3 3 0 3 1 1 2 2 2 3 4 4 3 3 3 4 4 4 4 3 2 2 3 4 3 4
6 6 6 7 8 9 2 2 5 6 4 3 2 4 3 3 2 2 2 2 4 1 1 2 3 1 2 1 1 3 5 5 4 5 4 4 3 3 4 4 4 4 5 4 3 3 4 2 2 4 3 3 2 3
11 10 8 6 5 1 2 5 3 4 3 5 4 3 4 3 6 3 2 4 3 0 2 4 3 3 1 2 3 4 6 6 3 3 3 3 4 4 5 6 4 6 7 2 2 3 4 5 4 4 3 3 3 4
10 10 6 6 3 6 7 6 6 5 1 1 2 3 3 3 3 2 3 5 2 3 3 3 3 3 3 3 3 4 4 7 7 6 4 7 3 2 4 5 6 8 5 4 5 5 4 3 3 4 4 4 6 6
8 6 4 3 3 3 3 1 1 1 1 2 4 2 3 3 3 6 5 4 4 5 6 9 8 4 5 7 4 3 5 7 4 3 3 8 8 6 4 3 2 3 6 6 3 5 5 5 4 5 5 6 6 6
4 2 2 1 2 4 4 2 1 2 1 3 2 1 3 1 6 7 3 2 2 3 2 3 6 7 5 3 5 4 3 7 5 3 1 3 5 6 6 5 6 4 5 6 6 6 5 4 5 5 5 5 5 5
3 3 3 2 3 1 5 1 3 5 4 2 3 2 6 9 7 4 4 2 2 2 2 2 2 2 3 3 3 4 3 1 2 3 4 6 8 7 8 8 7 9 5 6 6 6 6 6 6 6 7 7 6 4
3 1 1 3 1 0 5 6 5 3 1 4 5 4 6 5 3 3 3 2 1 0 1 2 3 0 1 1 1 2 4 7 8 6 5 5 3 4 6 6 5 5 5 6 9 10 9 8 8 8 9 7 5 3
1 1 4 1 3 5 3 2 2 1 1 1 2 5 4 6 5 1 2 2 3 5 3 3 2 5 5 5 3 4 5 6 7 6 5 6 5 2 4 5 5 5 5 5 5 5 8 7 4 2 5 5 4 4
1 1 2 1 4 2 2 0 1 1 1 1 1 2 5 7 9 4 4 3 2 0 0 4 4 5 5 6 6 4 5 7 13 14 10 5 4 4 4 5 4 4 5 6 6 6 6 6 6 7 7 8 8 6
1 2 3 2 3 1 0 1 0 0 1 1 3 1 4 3 6 5 4 5 3 2 7 4 4 5 7 7 4 4 3 2 5 7 11 9 8 7 5 4 4 5 5 6 6 6 7 8 6 7 7 9 8 7
2 1 0 2 4 3 2 1 2 4 1 2 4 4 3 3 8 5 2 6 5 4 4 5 5 4 5 6 6 5 7 6 7 9 11 11 10 8 5 5 5 6 7 6 6 6 8 9 8 9 8 9 8 6
Wind_Direction
55 57 70 69 67 75 78 96 114 123 128 127 113 111 109 99 117 82 54 46 101 90 49 35 9 115 108 135 146 165 111 34 61 78 114 136 133 179 122 136 169 157 154 182 136 236 266 19 170 228 11 355 354 351
53 55 62 63 71 75 80 85 87 97 111 121 113 97 105 101 95 112 83 60 96 80 116 83 77 44 41 318 123 46 92 113 137 106 117 120 110 166 121 172 205 184 222 188 199 205 55 24 79 66 30 359 343 326
56 54 52 57 62 70 76 81 85 93 101 111 97 89 99 127 124 110 114 111 88 103 82 44 358 340 23 0 343 105 90 133 81 35 131 108 122 156 155 214 129 155 9 260 217 68 64 100 83 32 8 354 334 327
48 49 54 59 53 49 63 79 89 93 101 105 116 113 104 95 85 73 75 339 86 84 86 46 2 31 331 33 62 56 114 85 96 66 87 107 117 225 164 95 80 9 326 3 247 93 109 106 66 1 339 336 333 326
47 50 52 52 54 58 60 62 74 88 99 109 110 108 103 102 98 85 74 34 29 97 123 111 340 360 16 41 54 54 76 86 72 68 60 81 100 114 67 106 95 7 37 236 330 65 308 285 332 333 338 332 329 325
42 43 44 47 54 60 60 61 64 68 80 90 98 96 97 38 23 51 50 10 7 32 103 84 45 5 0 31 53 51 49 53 65 81 75 74 41 314 142 168 96 69 26 354 320 320 287 285 299 332 330 325 324 317
38 39 40 38 39 43 48 56 66 72 77 80 85 91 102 96 79 63 97 309 319 332 91 90 65 10 339 339 33 37 42 52 50 75 56 78 83 347 86 186 93 355 328 313 329 332 315 11 320 320 317 320 319 310
35 36 35 36 36 34 35 40 46 55 69 81 87 94 94 99 102 44 17 20 32 88 69 97 80 60 6 36 58 357 54 45 30 84 47 35 80 344 96 123 104 334 321 232 317 314 276 289 301 310 312 316 319 323
32 33 35 34 32 31 31 28 30 37 38 52 75 81 48 36 44 336 344 40 43 59 96 61 99 129 348 53 35 69 44 69 346 64 43 298 332 105 119 168 316 337 321 296 310 298 285 300 307 313 319 325 325 324
28 28 28 29 28 28 25 23 18 23 25 37 38 40 35 351 314 351 8 26 25 11 29 77 309 78 345 19 71 101 46 109 102 38 63 41 84 110 134 215 248 276 274 295 315 334 326 322 319 320 323 316 314 315
28 27 25 24 24 22 20 16 18 7 38 38 43 75 274 320 66 36 52 42 344 46 16 10 23 37 15 63 85 11 123 99 97 103 240 84 150 181 162 224 264 270 270 265 254 265 272 278 298 313 327 335 338 339
26 27 26 24 22 20 21 22 15 45 53 129 114 84 26 28 33 69 38 7 38 57 358 1 349 2 321 326 122 17 95 105 135 357 101 161 140 140 163 209 291 315 305 296 268 278 287 293 297 320 331 335 340 333
26 27 27 23 20 19 18 23 43 88 85 44 43 49 18 326 45 46 8 28 60 358 4 351 51 350 315 359 67 59 74 68 254 43 270 344 128 165 182 210 290 327 314 311 316 302 304 307 324 346 337 343 333 319
26 26 28 26 15 13 20 20 22 44 58 61 42 30 48 13 61 140 107 136 31 325 339 327 302 7 329 52 6 78 41 233 81 227 221 152 182 166 172 186 241 346 320 336 317 310 323 324 339 346 336 343 335 354
355 14 20 13 16 12 15 29 33 45 57 61 43 48 55 152 11 345 319 283 231 306 318 196 242 331 23 75 32 117 87 217 231 218 132 143 151 153 149 149 309 317 329 345 310 310 319 322 341 344 353 351 2 8
3 17 2 351 7 13 19 34 32 65 56 59 48 84 19 75 21 12 353 302 303 327 338 38 81 65 50 71 109 182 134 217 177 184 107 127 145 157 155 170 228 296 332 314 313 306 311 315 333 328 339 3 357 8
51 25 338 346 357 18 24 67 49 48 75 50 39 37 84 66 72 22 354 283 317 271 55 88 63 150 112 70 233 206 220 15 27 129 152 156 147 159 177 158 228 339 336 325 318 315 307 311 303 347 355 350 343 353
42 297 356 357 31 39 33 36 77 70 63 42 82 287 108 35 86 322 262 305 318 36 44 101 128 101 148 174 251 194 175 138 198 147 163 175 179 177 162 109 293 301 285 279 277 286 295 322 313 321 325 335 323 349
9 15 17 22 68 82 57 28 35 87 86 224 180 96 86 79 242 297 289 298 283 309 142 95 95 168 220 204 197 172 186 197 166 178 188 171 178 170 182 206 261 263 266 275 274 265 277 267 267 287 309 321 321 324
4 17 14 29 42 70 62 21 20 87 86 145 56 39 14 301 316 298 316 348 303 94 58 87 209 209 206 180 192 163 159 156 148 132 183 193 184 174 210 222 242 264 280 290 264 268 275 276 216 220 288 290 301 310
25 349 9 46 47 61 81 360 57 80 131 100 252 297 244 352 26 8 342 337 36 192 249 207 232 204 38 28 345 103 158 165 183 217 166 171 176 192 221 226 254 237 248 267 281 280 244 249 261 280 278 270 259 273
297 359 48 25 71 51 78 8 99 135 71 152 64 14 34 28 342 335 310 16 238 239 191 174 200 155 171 231 210 210 269 156 72 93 65 110 165 208 229 217 182 229 228 241 234 249 259 250 249 257 265 285 298 297
14 32 43 25 70 44 297 37 72 359 74 319 10 34 358 347 242 310 284 231 266 235 166 165 157 158 168 142 218 242 206 186 209 216 218 225 239 246 252 236 220 241 267 260 215 232 245 271 251 268 269 273 282 292
29 48 44 45 41 120 357 22 40 46 48 30 34 351 336 290 326 37 253 259 239 85 211 202 164 110 28 350 243 225 191 189 221 258 214 196 236 249 213 237 213 220 226 250 226 246 257 261 251 238 238 260 270 277
64 355 37 5 353 51 34 7 350 44 52 325 21 327 315 342 27 351 238 269 250 219 193 161 201 236 203 233 255 236 194 174 185 215 209 197 203 277 249 230 233 230 175 201 233 233 245 230 233 241 246 248 265 280
71 329 59 215 308 86 197 67 13 227 143 348 243 290 9 63 44 250 233 223 223 193 182 189 184 178 240 212 229 213 211 180 146 204 245 188 193 198 219 226 264 277 180 200 180 213 226 221 225 229 249 258 265 282
76 333 2 276 100 116 88 58 74 101 142 206 224 68 62 33 251 251 278 238 228 240 224 198 180 193 211 191 220 215 163 166 175 191 15 201 210 210 201 205 223 233 161 185 198 209 230 242 253 259 270 273 261 257
135 167 159 204 74 332 135 121 159 207 222 204 88 203 188 200 238 239 216 220 230 274 272 252 252 215 191 205 177 129 136 153 7 312 268 240 221 219 218 230 234 224 203 202 208 212 223 237 248 254 257 263 271 237
74 335 96 48 31 142 218 189 217 229 177 147 171 236 240 234 246 233 238 194 169 88 304 268 252 136 32 35 132 164 149 158 155 184 234 254 297 254 195 213 218 214 218 224 231 226 225 228 232 233 240 250 256 249
217 254 98 88 164 235 247 153 232 267 268 269 306 300 277 267 250 232 215 208 219 230 230 207 189 175 204 184 216 245 216 215 222 197 204 228 225 194 164 184 196 197 194 207 225 240 256 266 261 272 225 242 244 249
143 67 70 125 240 239 227 252 344 352 16 330 357 204 268 308 308 247 213 219 216 163 225 252 233 212 204 202 195 186 245 207 221 229 240 257 251 224 206 201 196 185 192 204 213 223 225 226 232 243 246 252 256 253
70 145 139 258 280 271 40 50 287 227 294 340 267 267 295 323 274 276 189 143 123 241 236 206 217 248 215 231 220 241 231 186 186 207 216 226 237 238 230 212 204 199 200 210 217 222 221 228 234 237 242 249 252 251
56 44 78 335 322 326 302 35 12 326 276 269 250 202 231 229 251 286 262 216 212 197 214 215 223 236 241 234 229 239 238 244 236 236 233 227 227 224 208 206 206 205 210 215 216 216 222 228 235 238 237 241 248 243